SL-16 DEB, 22350

Orbit data source: Space-Track

SL-16 DEB, 22350 is space debris in LEO originally from a launch on Fri, 25 Dec 1992 UTC launched from the Tyuratam Missile And Space Complex (TTMTR). Debris objects in space refer to the collection of defunct objects orbiting the Earth. Examples of debris include non-operational satellites, rocket bodies, and fragments generated from explosions, collisions, or faulty payload assembly.

Loading next visibility...
SL-16 DEB details
Identifier
22350, 1992-093AP
Orbit
LEO
Last TLE update16 hours ago
Origin
Flag of CISRVSN RF (CIS)
ManufacturerUnknown
MissionSpacecraft
Bus & MotorUnknown
MassUnknown
Launch date (UTC)
1992-12-25 (32 years ago)
Launch vehicleUnknown
Launch site
Tyuratam Missile And Space Complex (TTMTR)
Object type
Payload
Rocket body
Debris
Shape & HBRUnknown
Radar Cross Section0.380 m², Medium (>0.1 m² and < 1m²)

Expand to show TLE details & history

TLE from 16 hours ago
0 SL-16 DEB
1 22350U 92093AP  24361.06030942  .00000374  00000-0  25095-3 0  9993
2 22350  70.9103 104.4496 0068226 160.6625  11.7297 14.06057820640271
Epoch: 2024-12-26T01:26Z
Definitive object data (Epoch: 2024-12-26T01:26:50.733Z)
Latitude6.97274°
Longitude165.28012°
Altitude826.213 km
Speed7.465 km/s
True Right ascension18h 48m 08s
True Declination6° 55' 55"
Sunlit
Object was in daylight at TLE epoch
Visualization TLE readout
Latitude-70.92106°
Longitude-109.1908°
Altitude914.12 km
Speed7.386 km/s
Apparent Right ascension03h 20m 57s
Apparent Declination-59° 44' 58"
Sunlit
Object is in daylight
Visualization observer readout
Local Sidereal Time16:38:11
Azimuth155.013° SSE
Elevation-66.772°
Doppler factor1
Orbital elements
Apogee altitude920.292 km
Perigee altitude821.379 km
Semi-major axis7,248.973 km
Eccentricity0.0068226
Inclination70.9103°
RAAN104.4496°
Arg. of periapsis160.6625°
True anomaly11.88998°
Mean anomaly11.7297°
Eccentric anomaly11.8097°
Mean motion3.51664 °/min
BSTAR0.00025095
Orbital period102.37 mins
Loading maneuver chart data...
Loading historical data...
Loading historical data...
Loading historical data...
Loading historical data...
Loading historical data...
Loading historical data...
Loading historical data...

SL-16 DEB Visibility forecast

Observer location: undefined°, undefined

Span
Click to sort rows by Start time (UTC) header in descending order
Start Az.
Max El. time (UTC)
Max El. Az.
Max El.
End time (UTC)
End Az.
10 mins2024-12-26 18:15:53.400Z336.989° NNW2024-12-26 18:20:53.400Z343.327° N44.168°2024-12-26 18:25:53.400Z157.581° S
8 mins2024-12-27 07:29:53.400Z151.542° SSE2024-12-27 07:32:53.400Z109.218° ESE27.395°2024-12-27 07:37:53.400Z45.418° ENE
9 mins2024-12-27 09:13:53.400Z241.145° WSW2024-12-27 09:17:53.400Z303.033° NW31.805°2024-12-27 09:22:53.400Z7.144° NNE
4 mins2024-12-27 16:28:53.400Z32.459° NE2024-12-27 16:29:53.400Z44.631° NE14.915°2024-12-27 16:32:53.400Z79.74° E
|